timestamp,wind_dir_avg,wind_spd_avg,wind_spd_max_dir,wind_spd_gust,battery_voltage,lat,long
2022-11-16 00:04:00+00:00,315.0,4.68,317.0,5.6,12.49,47.59359,-54.27349
2022-11-16 00:14:00+00:00,347.0,4.8,344.0,5.44,12.41,47.59359,-54.27349
2022-11-16 00:24:00+00:00,343.0,4.52,336.0,5.27,12.41,47.59359,-54.27349
2022-11-16 00:34:00+00:00,338.0,5.12,328.0,6.36,12.41,47.59359,-54.27349
2022-11-16 00:44:00+00:00,2.0,4.18,343.0,4.97,12.41,47.59359,-54.27349
2022-11-16 00:54:00+00:00,348.0,3.84,350.0,4.84,12.41,47.59359,-54.27349
2022-11-16 01:04:00+00:00,1.0,4.25,7.0,5.21,12.41,47.59359,-54.27349
2022-11-16 01:14:00+00:00,355.0,3.45,19.0,4.47,12.41,47.59359,-54.27349
2022-11-16 01:24:00+00:00,345.0,3.08,342.0,3.67,12.41,47.59359,-54.27349
2022-11-16 01:34:00+00:00,338.0,3.85,326.0,4.96,12.41,47.59359,-54.27349
2022-11-16 01:44:00+00:00,359.0,3.25,337.0,4.1,12.41,47.59359,-54.27349
2022-11-16 01:54:00+00:00,0.0,3.99,17.0,4.88,12.41,47.59359,-54.27349
2022-11-16 02:04:00+00:00,336.0,3.96,322.0,5.12,12.41,47.59359,-54.27349
2022-11-16 02:14:01+00:00,332.0,4.12,328.0,5.07,12.41,47.59359,-54.27349
2022-11-16 02:24:01+00:00,356.0,3.24,320.0,4.49,12.41,47.59359,-54.27349
2022-11-16 02:34:01+00:00,5.0,3.8,20.0,4.65,12.41,47.59359,-54.27349
2022-11-16 02:44:01+00:00,355.0,2.65,2.0,3.27,12.41,47.59359,-54.27349
2022-11-16 02:54:01+00:00,5.0,3.87,18.0,5.26,12.41,47.59359,-54.27349
2022-11-16 03:04:01+00:00,349.0,1.76,300.0,3.49,12.41,47.59359,-54.27349
2022-11-16 03:14:01+00:00,31.0,2.67,36.0,3.33,12.41,47.59359,-54.27349
2022-11-16 03:24:01+00:00,21.0,3.16,35.0,3.92,12.41,47.59359,-54.27349
2022-11-16 03:34:01+00:00,350.0,3.22,321.0,4.69,12.41,47.59359,-54.27349
2022-11-16 03:44:01+00:00,321.0,3.7,308.0,4.75,12.41,47.59359,-54.27349
2022-11-16 03:54:01+00:00,325.0,5.4,326.0,6.16,12.41,47.59359,-54.27349
2022-11-16 04:04:01+00:00,321.0,5.03,317.0,5.85,12.41,47.59359,-54.27349
2022-11-16 04:14:01+00:00,311.0,5.33,310.0,6.12,12.33,47.59359,-54.27349
2022-11-16 04:24:01+00:00,332.0,4.02,303.0,5.01,12.33,47.59359,-54.27349
2022-11-16 04:34:01+00:00,330.0,4.38,321.0,5.44,12.33,47.59359,-54.27349
2022-11-16 04:44:01+00:00,326.0,4.06,325.0,5.44,12.33,47.59359,-54.27349
2022-11-16 04:54:01+00:00,357.0,3.23,337.0,5.29,12.33,47.59359,-54.27349
2022-11-16 05:04:01+00:00,3.0,4.56,340.0,5.68,12.33,47.59359,-54.27349
2022-11-16 05:14:00+00:00,324.0,4.7,322.0,6.11,12.33,47.59359,-54.27349
2022-11-16 05:24:00+00:00,357.0,4.29,19.0,5.79,12.33,47.59359,-54.27349
2022-11-16 05:34:00+00:00,323.0,3.89,316.0,5.09,12.33,47.59359,-54.27349
2022-11-16 05:44:00+00:00,332.0,3.07,312.0,4.79,12.33,47.59359,-54.27349
2022-11-16 05:54:00+00:00,323.0,4.67,322.0,5.52,12.33,47.59359,-54.27349
2022-11-16 06:04:00+00:00,18.0,2.17,315.0,4.03,12.33,47.59359,-54.27349
2022-11-16 06:14:00+00:00,324.0,4.22,320.0,5.61,12.33,47.59359,-54.27349
2022-11-16 06:24:00+00:00,327.0,5.88,326.0,7.17,12.33,47.59359,-54.27349
2022-11-16 06:34:00+00:00,323.0,7.11,325.0,7.87,12.33,47.59359,-54.27349
2022-11-16 06:44:00+00:00,333.0,6.16,328.0,7.25,12.33,47.59359,-54.27349
2022-11-16 06:54:00+00:00,330.0,5.98,323.0,6.98,12.33,47.59359,-54.27349
2022-11-16 07:04:00+00:00,332.0,6.57,336.0,7.76,12.33,47.59359,-54.27349
2022-11-16 07:14:00+00:00,346.0,5.8,333.0,6.92,12.33,47.59359,-54.27349
2022-11-16 07:24:00+00:00,329.0,5.92,324.0,6.83,12.33,47.59359,-54.27349
2022-11-16 07:34:00+00:00,324.0,7.13,320.0,8.1,12.33,47.59359,-54.27349
2022-11-16 07:44:00+00:00,327.0,5.99,327.0,6.55,12.33,47.59359,-54.27349
2022-11-16 07:54:00+00:00,321.0,6.47,311.0,7.29,12.33,47.59359,-54.27349
2022-11-16 08:04:00+00:00,315.0,6.02,304.0,7.38,12.33,47.59359,-54.27349
2022-11-16 08:14:01+00:00,318.0,5.46,324.0,6.42,12.25,47.59359,-54.27349
2022-11-16 08:24:01+00:00,316.0,5.32,309.0,6.05,12.25,47.59359,-54.27349
2022-11-16 08:34:01+00:00,313.0,5.54,324.0,6.26,12.25,47.59359,-54.27349
2022-11-16 08:44:01+00:00,306.0,5.2,302.0,6.86,12.25,47.59359,-54.27349
2022-11-16 08:54:01+00:00,322.0,4.96,323.0,5.74,12.25,47.59359,-54.27349
2022-11-16 09:04:01+00:00,317.0,5.01,320.0,5.56,12.25,47.59359,-54.27349
2022-11-16 09:14:01+00:00,315.0,3.21,305.0,3.99,12.25,47.59359,-54.27349
2022-11-16 09:24:01+00:00,323.0,3.89,320.0,5.59,12.25,47.59359,-54.27349
2022-11-16 09:34:01+00:00,307.0,5.24,300.0,6.61,12.25,47.59359,-54.27349
2022-11-16 09:44:01+00:00,300.0,4.37,297.0,4.9,12.25,47.59359,-54.27349
2022-11-16 09:54:01+00:00,294.0,4.68,281.0,6.58,12.25,47.59359,-54.27349
2022-11-16 10:04:01+00:00,275.0,7.93,275.0,9.83,12.25,47.59359,-54.27349
2022-11-16 10:14:00+00:00,277.0,8.3,275.0,10.16,12.25,47.59359,-54.27349
2022-11-16 10:24:00+00:00,279.0,8.47,277.0,10.51,12.25,47.59359,-54.27349
2022-11-16 10:34:00+00:00,275.0,8.21,277.0,10.29,12.25,47.59359,-54.27349
2022-11-16 10:44:00+00:00,286.0,6.98,285.0,9.93,12.25,47.59359,-54.27349
2022-11-16 10:54:00+00:00,307.0,4.75,314.0,5.64,12.25,47.59359,-54.27349
2022-11-16 11:04:00+00:00,318.0,5.43,315.0,5.93,12.25,47.59359,-54.27349
2022-11-16 11:14:00+00:00,321.0,4.83,327.0,5.64,12.25,47.59359,-54.27349
2022-11-16 11:24:00+00:00,300.0,4.09,307.0,4.9,12.25,47.59359,-54.27349
2022-11-16 11:34:00+00:00,303.0,4.92,293.0,8.67,12.25,47.59359,-54.27349
2022-11-16 11:44:00+00:00,317.0,6.09,308.0,7.52,12.25,47.59359,-54.27349
2022-11-16 11:54:00+00:00,301.0,8.1,294.0,10.22,12.25,47.59359,-54.27349
2022-11-16 12:04:00+00:00,302.0,4.85,291.0,10.3,12.25,47.59359,-54.27349
2022-11-16 12:14:01+00:00,296.0,3.99,318.0,5.53,12.81,47.59359,-54.27349
2022-11-16 12:24:01+00:00,278.0,7.79,278.0,9.92,12.81,47.59359,-54.27349
2022-11-16 12:34:01+00:00,295.0,5.36,284.0,9.77,12.81,47.59359,-54.27349
2022-11-16 12:44:01+00:00,273.0,5.78,269.0,9.31,12.81,47.59359,-54.27349
2022-11-16 12:54:01+00:00,295.0,4.11,308.0,4.97,12.81,47.59359,-54.27349
2022-11-16 13:04:01+00:00,308.0,4.19,306.0,4.78,12.81,47.59359,-54.27349
2022-11-16 13:14:00+00:00,342.0,4.62,340.0,5.61,13.6,47.59359,-54.27349
2022-11-16 13:24:00+00:00,338.0,5.47,343.0,6.33,13.6,47.59359,-54.27349
2022-11-16 13:34:00+00:00,324.0,4.35,309.0,5.41,13.6,47.59359,-54.27349
2022-11-16 13:44:00+00:00,291.0,5.97,286.0,9.64,13.6,47.59359,-54.27349
2022-11-16 13:54:00+00:00,277.0,7.3,271.0,10.04,13.6,47.59359,-54.27349
2022-11-16 14:04:00+00:00,270.0,4.58,268.0,6.53,13.6,47.59359,-54.27349
2022-11-16 14:14:01+00:00,278.0,4.42,286.0,6.63,13.6,47.59359,-54.27349
2022-11-16 14:24:01+00:00,298.0,4.01,305.0,4.93,13.6,47.59359,-54.27349
2022-11-16 14:34:01+00:00,292.0,2.87,304.0,3.47,13.6,47.59359,-54.27349
2022-11-16 14:44:01+00:00,325.0,5.0,326.0,5.87,13.6,47.59359,-54.27349
2022-11-16 14:54:01+00:00,330.0,6.08,329.0,6.91,13.6,47.59359,-54.27349
2022-11-16 15:04:01+00:00,328.0,5.25,324.0,6.46,13.6,47.59359,-54.27349
2022-11-16 15:14:00+00:00,274.0,4.15,276.0,5.85,13.68,47.59359,-54.27349
2022-11-16 15:24:00+00:00,295.0,3.78,283.0,5.43,13.68,47.59359,-54.27349
2022-11-16 15:34:00+00:00,282.0,8.08,279.0,10.45,13.68,47.59359,-54.27349
2022-11-16 15:44:00+00:00,275.0,7.79,271.0,10.28,13.68,47.59359,-54.27349
2022-11-16 15:54:00+00:00,269.0,8.21,252.0,10.33,13.68,47.59359,-54.27349
2022-11-16 16:04:00+00:00,308.0,5.25,312.0,6.16,13.68,47.59359,-54.27349
2022-11-16 16:14:01+00:00,302.0,4.75,313.0,5.99,13.84,47.59359,-54.27349
2022-11-16 16:24:01+00:00,312.0,4.89,314.0,5.68,13.84,47.59359,-54.27349
2022-11-16 16:34:01+00:00,300.0,4.43,293.0,5.28,13.84,47.59359,-54.27349
2022-11-16 16:44:01+00:00,315.0,4.81,298.0,8.91,13.84,47.59359,-54.27349
2022-11-16 16:54:01+00:00,320.0,3.88,316.0,4.88,13.84,47.59359,-54.27349
2022-11-16 17:04:01+00:00,279.0,3.89,277.0,4.57,13.84,47.59359,-54.27349
2022-11-16 17:14:00+00:00,304.0,5.36,298.0,8.15,13.76,47.59359,-54.27349
2022-11-16 17:24:00+00:00,309.0,4.21,316.0,4.96,13.76,47.59359,-54.27349
2022-11-16 17:34:00+00:00,320.0,1.73,311.0,3.38,13.76,47.59359,-54.27349
2022-11-16 17:44:00+00:00,272.0,4.05,279.0,4.5,13.76,47.59359,-54.27349
2022-11-16 17:54:00+00:00,279.0,3.38,278.0,4.28,13.76,47.59359,-54.27349
2022-11-16 18:04:00+00:00,285.0,5.13,279.0,7.96,13.76,47.59359,-54.27349
2022-11-16 18:14:01+00:00,299.0,4.0,297.0,4.75,13.68,47.59359,-54.27349
2022-11-16 18:24:01+00:00,354.0,1.75,316.0,3.22,13.68,47.59359,-54.27349
2022-11-16 18:34:01+00:00,349.0,3.05,326.0,4.31,13.68,47.59359,-54.27349
2022-11-16 18:44:01+00:00,319.0,3.55,308.0,4.58,13.68,47.59359,-54.27349
2022-11-16 18:54:01+00:00,315.0,5.7,320.0,6.39,13.68,47.59359,-54.27349
2022-11-16 19:04:01+00:00,318.0,6.12,312.0,6.85,13.68,47.59359,-54.27349
2022-11-16 19:14:00+00:00,312.0,3.48,306.0,4.73,13.13,47.59359,-54.27349
2022-11-16 19:24:00+00:00,276.0,8.6,276.0,10.04,13.13,47.59359,-54.27349
2022-11-16 19:34:00+00:00,298.0,4.17,300.0,5.08,13.13,47.59359,-54.27349
2022-11-16 19:44:00+00:00,263.0,4.0,266.0,4.61,13.13,47.59359,-54.27349
2022-11-16 19:54:00+00:00,270.0,4.26,264.0,8.54,13.13,47.59359,-54.27349
2022-11-16 20:04:00+00:00,277.0,4.26,280.0,4.75,13.13,47.59359,-54.27349
2022-11-16 20:14:00+00:00,256.0,3.63,240.0,4.66,12.65,47.59359,-54.27349
2022-11-16 20:24:00+00:00,269.0,4.82,271.0,10.22,12.65,47.59359,-54.27349
2022-11-16 20:34:00+00:00,272.0,5.66,271.0,9.46,12.65,47.59359,-54.27349
2022-11-16 20:44:00+00:00,268.0,6.64,268.0,10.22,12.65,47.59359,-54.27349
2022-11-16 20:54:00+00:00,244.0,4.25,239.0,4.72,12.65,47.59359,-54.27349
2022-11-16 21:04:00+00:00,276.0,8.76,275.0,10.36,12.65,47.59359,-54.27349
2022-11-16 21:14:00+00:00,34.0,2.48,36.0,3.18,12.49,47.59359,-54.27349
2022-11-16 21:24:00+00:00,33.0,1.98,33.0,3.04,12.49,47.59359,-54.27349
2022-11-16 21:34:00+00:00,14.0,0.35,72.0,2.31,12.49,47.59359,-54.27349
2022-11-16 21:44:00+00:00,77.0,1.39,84.0,2.36,12.49,47.59359,-54.27349
2022-11-16 21:54:00+00:00,16.0,1.26,270.0,3.36,12.49,47.59359,-54.27349
2022-11-16 22:04:00+00:00,312.0,3.64,308.0,4.25,12.49,47.59359,-54.27349
2022-11-16 22:14:00+00:00,20.0,2.59,327.0,3.72,12.41,47.59359,-54.27349
2022-11-16 22:24:00+00:00,345.0,0.81,295.0,3.18,12.41,47.59359,-54.27349
2022-11-16 22:34:00+00:00,7.0,1.63,308.0,3.1,12.41,47.59359,-54.27349
2022-11-16 22:44:00+00:00,17.0,2.56,33.0,3.64,12.41,47.59359,-54.27349
2022-11-16 22:54:00+00:00,3.0,1.96,40.0,3.12,12.41,47.59359,-54.27349
2022-11-16 23:04:00+00:00,9.0,2.57,38.0,3.52,12.41,47.59359,-54.27349
2022-11-16 23:14:00+00:00,29.0,1.67,44.0,2.77,12.41,47.59359,-54.27349
2022-11-16 23:24:00+00:00,341.0,1.55,328.0,2.17,12.41,47.59359,-54.27349
2022-11-16 23:34:00+00:00,342.0,2.21,332.0,2.62,12.41,47.59359,-54.27349
2022-11-16 23:44:00+00:00,355.0,2.1,39.0,3.11,12.41,47.59359,-54.27349
2022-11-16 23:54:00+00:00,35.0,2.48,36.0,3.25,12.41,47.59359,-54.27349
